When you browse on this site, cookies collect data to enhance your experience and personalize the content and advertising you see.
Visit our Privacy Policy to learn more. By continuing to use the site, you agree to this use of cookies and data.

Stündliche Wetter Bolshie Kopeny

Heute, 29 September, Dienstag

Zeit Temperatur Niederschläge Wind Luftdruck Luftfeuchtigkeit
00:00 +11°C° 0 mm 3 m/S 763 mmHg 40%
01:00 +10°C° 0 mm 3 m/S 763 mmHg 40%
02:00 +10°C° 0 mm 3 m/S 763 mmHg 41%
03:00 +10°C° 0 mm 3 m/S 763 mmHg 42%
04:00 +9°C° 0 mm 3 m/S 763 mmHg 43%
05:00 +9°C° 0 mm 3 m/S 763 mmHg 45%
06:00 +9°C° 0 mm 3 m/S 763 mmHg 46%
07:00 +11°C° 0 mm 4 m/S 763 mmHg 42%
08:00 +13°C° 0 mm 4 m/S 763 mmHg 38%
09:00 +16°C° 0 mm 5 m/S 763 mmHg 33%
10:00 +17°C° 0 mm 5 m/S 763 mmHg 31%
11:00 +19°C° 0 mm 6 m/S 762 mmHg 30%
12:00 +20°C° 0 mm 6 m/S 762 mmHg 28%
13:00 +20°C° 0 mm 6 m/S 762 mmHg 29%
14:00 +21°C° 0 mm 6 m/S 761 mmHg 29%
15:00 +21°C° 0 mm 5 m/S 761 mmHg 30%
16:00 +19°C° 0 mm 5 m/S 761 mmHg 36%
17:00 +18°C° 0 mm 4 m/S 760 mmHg 42%
18:00 +16°C° 0 mm 3 m/S 760 mmHg 47%
19:00 +14°C° 0 mm 3 m/S 760 mmHg 52%
20:00 +14°C° 0 mm 4 m/S 760 mmHg 56%
21:00 +13°C° 0 mm 4 m/S 760 mmHg 60%
22:00 +13°C° 0 mm 4 m/S 759 mmHg 59%
23:00 +13°C° 0 mm 4 m/S 759 mmHg 59%

Morgen, 30 September, Mittwoch

Zeit Temperatur Niederschläge Wind Luftdruck Luftfeuchtigkeit
00:00 +13°C° 0 mm 4 m/S 758 mmHg 58%
01:00 +12°C° 0 mm 4 m/S 759 mmHg 58%
02:00 +12°C° 0 mm 4 m/S 759 mmHg 58%
03:00 +11°C° 0 mm 4 m/S 759 mmHg 59%
04:00 +11°C° 0 mm 4 m/S 759 mmHg 60%
05:00 +11°C° 0 mm 4 m/S 759 mmHg 61%
06:00 +10°C° 0 mm 4 m/S 759 mmHg 62%
07:00 +12°C° 0 mm 5 m/S 759 mmHg 57%
08:00 +13°C° 0 mm 5 m/S 759 mmHg 52%
09:00 +15°C° 0 mm 6 m/S 759 mmHg 48%
10:00 +17°C° 0 mm 6 m/S 759 mmHg 44%
11:00 +18°C° 0 mm 7 m/S 758 mmHg 40%
12:00 +21°C° 0 mm 7 m/S 758 mmHg 36%
13:00 +21°C° 0 mm 7 m/S 758 mmHg 34%
14:00 +21°C° 0 mm 7 m/S 758 mmHg 33%
15:00 +22°C° 0 mm 7 m/S 758 mmHg 32%
16:00 +20°C° 0 mm 6 m/S 757 mmHg 36%
17:00 +19°C° 0 mm 5 m/S 757 mmHg 39%
18:00 +17°C° 0 mm 4 m/S 757 mmHg 43%
19:00 +17°C° 0 mm 4 m/S 757 mmHg 44%
20:00 +15°C° 0 mm 4 m/S 758 mmHg 45%
21:00 +15°C° 0 mm 5 m/S 758 mmHg 47%
22:00 +14°C° 0 mm 5 m/S 758 mmHg 48%
23:00 +14°C° 0 mm 5 m/S 758 mmHg 49%

übermorgen, 1 Oktober, Donnerstag

Zeit Temperatur Niederschläge Wind Luftdruck Luftfeuchtigkeit
00:00 +14°C° 0 mm 4 m/S 758 mmHg 50%
01:00 +13°C° 0 mm 4 m/S 758 mmHg 50%
02:00 +12°C° 0 mm 4 m/S 758 mmHg 51%
03:00 +12°C° 0 mm 3 m/S 759 mmHg 51%
04:00 +11°C° 0 mm 4 m/S 759 mmHg 51%
05:00 +11°C° 0 mm 4 m/S 759 mmHg 50%
06:00 +11°C° 0 mm 4 m/S 759 mmHg 50%
07:00 +12°C° 0 mm 5 m/S 759 mmHg 46%
08:00 +14°C° 0 mm 5 m/S 759 mmHg 42%
09:00 +16°C° 0 mm 6 m/S 759 mmHg 38%
10:00 +17°C° 0 mm 6 m/S 759 mmHg 35%
11:00 +19°C° 0 mm 6 m/S 759 mmHg 32%
12:00 +21°C° 0 mm 7 m/S 759 mmHg 29%
13:00 +21°C° 0 mm 7 m/S 759 mmHg 29%
14:00 +21°C° 0 mm 7 m/S 759 mmHg 29%
15:00 +21°C° 0 mm 6 m/S 758 mmHg 29%
16:00 +20°C° 0 mm 6 m/S 758 mmHg 36%
17:00 +17°C° 0 mm 5 m/S 758 mmHg 43%
18:00 +17°C° 0 mm 4 m/S 758 mmHg 50%
19:00 +15°C° 0 mm 4 m/S 758 mmHg 52%
20:00 +15°C° 0 mm 4 m/S 758 mmHg 55%
21:00 +14°C° 0 mm 4 m/S 759 mmHg 58%
22:00 +14°C° 0 mm 4 m/S 759 mmHg 60%
23:00 +13°C° 0 mm 4 m/S 759 mmHg 62%

2 Oktober, Freitag

Zeit Temperatur Niederschläge Wind Luftdruck Luftfeuchtigkeit
00:00 +12°C° 0 mm 4 m/S 758 mmHg 64%
01:00 +12°C° 0 mm 4 m/S 759 mmHg 67%
02:00 +11°C° 0 mm 4 m/S 759 mmHg 70%
03:00 +11°C° 0 mm 4 m/S 759 mmHg 73%
04:00 +10°C° 0 mm 4 m/S 759 mmHg 75%
05:00 +10°C° 0 mm 4 m/S 759 mmHg 77%
06:00 +10°C° 0 mm 4 m/S 759 mmHg 78%
07:00 +12°C° 0 mm 4 m/S 759 mmHg 70%
08:00 +13°C° 0 mm 5 m/S 759 mmHg 61%
09:00 +15°C° 0 mm 5 m/S 759 mmHg 52%
10:00 +17°C° 0 mm 6 m/S 759 mmHg 47%
11:00 +19°C° 0 mm 6 m/S 759 mmHg 41%
12:00 +20°C° 0 mm 6 m/S 759 mmHg 36%
13:00 +20°C° 0 mm 6 m/S 759 mmHg 34%
14:00 +21°C° 0 mm 6 m/S 759 mmHg 33%
15:00 +21°C° 0 mm 6 m/S 758 mmHg 31%
16:00 +19°C° 0 mm 5 m/S 758 mmHg 34%
17:00 +18°C° 0 mm 4 m/S 758 mmHg 37%
18:00 +16°C° 0 mm 3 m/S 758 mmHg 40%
19:00 +14°C° 0 mm 3 m/S 759 mmHg 42%
20:00 +13°C° 0 mm 3 m/S 759 mmHg 44%
21:00 +13°C° 0 mm 3 m/S 759 mmHg 45%
22:00 +12°C° 0 mm 3 m/S 759 mmHg 47%
23:00 +12°C° 0 mm 3 m/S 759 mmHg 48%

3 Oktober, Samstag

Zeit Temperatur Niederschläge Wind Luftdruck Luftfeuchtigkeit
00:00 +11°C° 0 mm 3 m/S 759 mmHg 50%
01:00 +11°C° 0 mm 3 m/S 759 mmHg 51%
02:00 +10°C° 0 mm 3 m/S 759 mmHg 52%
03:00 +10°C° 0 mm 3 m/S 759 mmHg 53%
04:00 +10°C° 0 mm 3 m/S 759 mmHg 55%
05:00 +9°C° 0 mm 3 m/S 759 mmHg 57%
06:00 +8°C° 0 mm 4 m/S 759 mmHg 58%
07:00 +11°C° 0 mm 4 m/S 759 mmHg 53%
08:00 +12°C° 0 mm 4 m/S 759 mmHg 47%
09:00 +14°C° 0 mm 4 m/S 759 mmHg 42%
10:00 +15°C° 0 mm 4 m/S 759 mmHg 37%
11:00 +18°C° 0 mm 4 m/S 759 mmHg 32%
12:00 +19°C° 0 mm 4 m/S 759 mmHg 28%
13:00 +19°C° 0 mm 4 m/S 759 mmHg 27%
14:00 +19°C° 0 mm 4 m/S 759 mmHg 26%
15:00 +19°C° 0 mm 4 m/S 758 mmHg 24%
16:00 +18°C° 0 mm 3 m/S 758 mmHg 26%
17:00 +17°C° 0 mm 3 m/S 758 mmHg 28%
18:00 +15°C° 0 mm 2 m/S 758 mmHg 30%
19:00 +15°C° 0 mm 2 m/S 758 mmHg 31%
20:00 +14°C° 0 mm 2 m/S 758 mmHg 31%
21:00 +14°C° 0 mm 2 m/S 758 mmHg 32%
22:00 +14°C° 0 mm 2 m/S 758 mmHg 32%
23:00 +12°C° 0 mm 3 m/S 758 mmHg 33%

4 Oktober, Sonntag

Zeit Temperatur Niederschläge Wind Luftdruck Luftfeuchtigkeit
00:00 +12°C° 0 mm 3 m/S 758 mmHg 33%
01:00 +12°C° 0 mm 3 m/S 758 mmHg 34%
02:00 +11°C° 0 mm 3 m/S 758 mmHg 35%
03:00 +11°C° 0 mm 3 m/S 758 mmHg 36%
04:00 +10°C° 0 mm 3 m/S 758 mmHg 37%
05:00 +10°C° 0 mm 3 m/S 758 mmHg 38%
06:00 +10°C° 0 mm 3 m/S 758 mmHg 39%
07:00 +12°C° 0 mm 3 m/S 759 mmHg 36%
08:00 +13°C° 0 mm 4 m/S 759 mmHg 33%
09:00 +15°C° 0 mm 4 m/S 759 mmHg 30%
10:00 +17°C° 0 mm 4 m/S 758 mmHg 27%
11:00 +19°C° 0 mm 4 m/S 758 mmHg 24%
12:00 +20°C° 0 mm 4 m/S 758 mmHg 22%
13:00 +20°C° 0 mm 4 m/S 758 mmHg 22%
14:00 +20°C° 0 mm 4 m/S 758 mmHg 22%
15:00 +20°C° 0 mm 4 m/S 757 mmHg 22%
16:00 +18°C° 0 mm 3 m/S 757 mmHg 24%
17:00 +17°C° 0 mm 3 m/S 757 mmHg 26%
18:00 +14°C° 0 mm 3 m/S 757 mmHg 28%
19:00 +13°C° 0 mm 3 m/S 757 mmHg 28%
20:00 +13°C° 0 mm 3 m/S 757 mmHg 29%
21:00 +12°C° 0 mm 3 m/S 757 mmHg 29%
22:00 +12°C° 0 mm 3 m/S 757 mmHg 30%
23:00 +12°C° 0 mm 3 m/S 757 mmHg 30%
Mehr zeigen